Regional Weather Roundup
Issued by NWS Lake Charles, LA

Home | Current Version | Previous Version | Text Only | Print | Product List | Glossary On
Versions: 1 2 3 4 5 6 7 8 9 10 11 12 13 14 15 16 17 18 19 20 21 22 23 24 25 26 27 28 29 30 31 32 33 34 35 36 37 38 39 40 41 42 43 44 45 46 47 48 49 50
000
ASUS44 KLCH 060910
RWRLCH
RWRLCH
REGIONAL WEATHER ROUNDUP
NATIONAL WEATHER SERVICE LAKE CHARLES LA
400 AM CDT WED MAY 06 2015

Note: "fair" indicates few or no clouds below 12,000 feet with no
significant weather and/or obstructions to visibility.


ACROSS SOUTHEAST TEXAS

CITY           SKY/WX    TMP DP  RH WIND       PRES   REMARKS
BEAUMONT       CLOUDY    73  67  81 SE12      29.99F
BEAUMONT CITY  PTSUNNY   70  66  88 SE3       30.00S
ORANGE         MOSUNNY   71  64  79 E7        30.01F
JASPER         NOT AVBL
$$

ACROSS CENTRAL LOUISIANA

CITY           SKY/WX    TMP DP  RH WIND       PRES   REMARKS
LEESVILLE      MOCLDY    66  62  86 SE8       30.03S
FULLERTON        N/A     67  61  81 CALM      30.02F
ALEXANDRIA INT CLEAR     63  60  90 CALM      30.03F
ESLER FIELD    CLEAR     59  56  89 CALM      30.06F
DERIDDER         N/A     66  64  93 CALM      30.05F
OAKDALE        MOSUNNY   58  57  95 CALM      30.04F
OPELOUSAS        N/A    N/A N/A N/A E3        30.04F
$$

ACROSS SOUTHWEST AND SOUTH CENTRAL LOUISIANA

CITY           SKY/WX    TMP DP  RH WIND       PRES   REMARKS
SULPHUR        PTSUNNY   69  67  93 NE5       30.02F
LAKE CHARLES   MOCLDY    67  64  90 E6        30.01F
CHENNAULT INT  MOCLDY    65  64  94 E3        30.03S
CAMERON PHI      N/A     75  66  73 SE16G24   30.03F
DEQUINCY         N/A     65  65 100 E3        30.02F
JENNINGS         N/A     66  63  89 E7        30.03S
LAFAYETTE      CLEAR     65  63  93 E3        30.04S
NEW IBERIA       N/A    N/A N/A N/A MISG      30.04F
ABBEVILLE        N/A     64  62  94 E3        30.03F
PATTERSON      CLEAR    N/A N/A N/A E5        30.04F
SALT POINT       N/A     66  65  96 CALM      30.02F
$$

SELECTED SITES ACROSS THE REGION

CITY           SKY/WX    TMP DP  RH WIND       PRES   REMARKS
HOUSTON BUSH   CLOUDY    74  68  81 SE14      29.95F
HOUSTON HOBBY  MOCLDY    74  68  81 SE6       29.96S
GALVESTON      CLOUDY    75  71  87 SE17      29.97F
COLLEGE STAT   CLOUDY    70  67  90 SE10      29.93F
CONROE         CLOUDY    70  67  90 SE9       29.95F
HUNTSVILLE     CLOUDY    72  66  81 VRB6      29.96R
LUFKIN         CLOUDY    70  66  87 SE7       29.99S
SHREVEPORT     PTCLDY    67  63  87 SE5       30.03S
MONROE         CLEAR     62  59  90 CALM      30.08S
NATCHEZ MS     CLEAR     61  55  82 CALM      30.07F
BATON ROUGE    CLEAR     61  60  97 NE5       30.06S
N.O. INTL ARPT PTCLDY    69  64  84 E3        30.05F
SLIDELL        PTCLDY    61  60  97 NE3       30.06S
$$

MARINE REPORTS

STATION/POSITION TIME  TEMP    WIND        PRES    VSBY  WAVE
                       AIR SEA DIR/SP/G                  HT/PER
                 (UTC) (F)     (DEG/KT/KT) (MB)    (MI)  (FT/S)
BUOY 30 S HIGH I 0850   75 75  120/ 19/ 23 1013.9F         5/ 5
SEA RIM ST PARK  0900   73     120/ 15/ 20 1015.9F
PORT ARTHUR      0800      74  130/  9/ 13 1016.1F
SABINE PASS N    0800   74 75  140/ 18/ 22 1015.9F
TEXAS POINT      NOT AVBL
CALCASIEU PASS   0800   74 76  150/ 15/ 21   N/A
LK CHARLES BEACH 0800   69 71              1016.9F
MARSH ISLAND     0800   74     140/ 18/ 21   N/A           0
FRESH WATER LOCK 0800   73 76  120/ 10/ 15 1016.5F
AMERADA PASS     0800   69 69   90/  2/  3 1017.0F
$$



USA.gov is the U.S. government's official web portal to all federal, state and local government web resources and services.